Location: Godiavel Galaoual
(15.2485°N, 12.6604°W)
Time: 14:20:44
(UTC+00:00)

ISS - Visible Passes

Search period start: 15 May 2021 00:00
Search period end: 25 May 2021 00:00
Orbit: 417 x 422 km, 51.6° (Epoch: 15 May)

Date Brightness Start Highest point End Pass type
(mag) Time Alt. Az. Time Alt. Az. Time Alt. Az.
15 May -2.4 19:53:39 10° SW 19:56:51 42° NW 20:00:02 10° NNE visible
16 May -3.8 05:46:32 10° NW 05:49:54 82° SW 05:53:16 10° SE visible
17 May -2.4 04:59:17 10° NNW 05:02:28 41° NE 05:05:41 10° ESE visible
17 May 0.3 19:58:41 10° NW 19:58:49 10° NW 19:58:57 10° NW visible
18 May -1.0 04:14:34 19° NE 04:15:01 19° NE 04:17:31 10° E visible
18 May -2.1 05:49:31 10° W 05:51:37 16° SW 05:53:43 10° SSW visible
19 May -1.3 05:07:04 12° S 05:07:04 12° S 05:07:19 10° SSE visible
